Regional Weather Roundup
Issued by NWS Pendleton, OR

Home | Current Version | Previous Version | Text Only | Print | Product List | Glossary On
Versions: 1 2 3 4 5 6 7 8 9 10 11 12 13 14 15 16 17 18 19 20 21 22 23 24 25 26 27 28 29 30 31 32 33 34 35 36 37 38 39 40 41 42 43 44 45 46 47 48 49 50
000
ASUS46 KPDT 271010
RWRPDT
PENDLETON REGIONAL WEATHER ROUNDUP
NATIONAL WEATHER SERVICE PENDLETON OREGON
300 AM PDT MON APR 27 2015

NOTE: FAIR INDICATES FEW OR NO CLOUDS BELOW 12,000 FEET WITH NO
SIGNIFICANT WEATHER AND/OR OBSTRUCTIONS TO VISIBILITY.

# INDICATES UNOFFICIAL STATION AND DATA

WAZ520-271110-
EAST SLOPES OF WASHINGTON CASCADES

CITY            SKY/WX      TMP DP  RH  WIND    PRES   REMARKS
#BULLFROG 2SW   N/A         44  40  86  S1      27.84S
#BUMPING DAM    N/A         41  N/A N/A CALM    N/A
#CLE ELUM HS    N/A         47  41  79  CALM    30.20R
#CLE ELUM LAKE  N/A         46  37  71  CALM    30.24F
#CLIFFDEL 2NW   N/A         45  39  79  CALM    N/A
#EASTON DOT     N/A         44  35  70  CALM    N/A
#GLENWOOD       N/A         37  35  92  CALM    30.28R
#MANASTASH CYN  N/A         43  31  62  CALM    30.21R
#NELSON         N/A         46  42  86  CALM    30.28S
#NELSON 3SW     N/A         43  40  89  CALM    30.49F
#NILE           N/A         44  37  76  CALM    29.53R
#PEOH POINT     N/A         43  34  70  W2      N/A
#RONALD 2NW     N/A         47  28  47  CALM    30.12S
#SNOWDEN        N/A         45  35  68  CALM    N/A
#SOUTH BLEWITT  N/A         42  36  79  CALM    N/A
#TEANAWAY 4NE   N/A         45  40  82  CALM    N/A
#TROUT LAKE 1NE N/A         41  39  93  CALM    30.27F
$$

WAZ521-271110-
SIMCOE HIGHLANDS

CITY            SKY/WX      TMP DP  RH  WIND    PRES   REMARKS
#BICKLETON HS   N/A         41  26  55  W5      N/A
#SATUS PASS DOT N/A         38  34  85  CALM    N/A
#CENTERVILLE 4W N/A         48  41  77  CALM    30.00S
#CENTERVILLE 1SWN/A         42  37  82  CALM    30.23R
#GOLDENDALE     N/A         45  40  82  CALM    N/A
#GOLDENDALE 1NE N/A         42  33  70  VRB2    N/A
#GOODNOE HILLS  N/A         47  42  83  CALM    N/A
#LYLE 6NE       N/A         47  44  89  CALM    30.24S
$$

WAZ026-271110-
KITTITAS VALLEY

CITY            SKY/WX      TMP DP  RH  WIND    PRES   REMARKS
ELLENSBURG AP   PTCLDY      47  33  58  E6      30.24S
YTC-OPS AREA    MOCLDY      48  26  42  W5      30.23
#ELLENSBURG CWU N/A         46  34  63  CALM    30.20S
#ELLENSBURG 3NE N/A         45  35  68  CALM    30.24R
#ELLENSBURG 1E  N/A         43  32  65  CALM    N/A
#KITTITAS 3S    N/A         40  36  85  CALM    30.25R
#THORP 6N       N/A         47  39  74  N6      30.27F
$$

WAZ027-271110-
YAKIMA VALLEY

CITY            SKY/WX      TMP DP  RH  WIND    PRES   REMARKS
SUNNYSIDE AP    CLOUDY      48  36  63  CALM    30.25R
YAKIMA AIRPORT  PTCLDY      47  33  58  W8      30.25S
#DONALD 2NE     N/A         54  20  26  CALM    29.09R
#GRANDVIEW      N/A         52  35  52  CALM    30.26S
#MABTON         N/A         51  37  59  CALM    30.24S
#MOXEE 2E       N/A         51  14  22  CALM    30.16
#NACHES 2SW     N/A         50  39  66  CALM    30.25R
#TERRACE HTS    N/A         49  29  46  CALM    30.22S
#WAPATO 4NE     N/A         54  20  26  CALM    29.09R
#WEST VALLEY    N/A         46  34  63  CALM    30.24R
#W YAKIMA       N/A         51  32  48  NW2     30.25R
#WHITE SWAN 5E  N/A         47  37  68  CALM    30.25S
$$

WAZ028-271110-
LOWER COLUMBIA BASIN...WASHINGTON

CITY            SKY/WX      TMP DP  RH  WIND    PRES   REMARKS
PASCO           CLOUDY      46  36  68  E3      30.28R
PROSSER AWOS    N/A         54  37  52  E5      30.28S
RICHLAND AWOS   CLOUDY      50  36  58  SE5     30.26S
#BASIN CITY 5SW N/A         46  33  60  CALM    30.26R
#BENTON CITY    N/A         54  35  48  CALM    30.16S
#CONNELL 5N     N/A         45  27  49  CALM    30.27R
#CONNELL 5NW    N/A         44  30  58  CALM    30.24R
#ELTOPIA        N/A         48  34  58  CALM    30.23R
#ELTOPIA 6NW    N/A         47  33  58  CALM    29.22R
#KAHLOTUS       N/A         40  27  59  S8      30.27S
#KENNEWICK      N/A         44  40  86  S1      27.84S
#KENNEWICK 3S   N/A         51  35  54  CALM    30.27R
#PATERSON       N/A         49  35  58  NE3     30.25R
#PROSSER DOT    N/A         55  36  49  E1      N/A
#PROSSER        N/A         53  35  50  S7      30.24S
#SAGEMOOR 2W    N/A         46  37  71  CALM    30.11R
#TOUCHET 2S     N/A         34  31  89  CALM    30.27S
#WEST PASCO     N/A         49  34  56  E1      30.31R
$$

WAZ029-271110-
FOOTHILLS OF THE BLUES...WASHINGTON

CITY            SKY/WX      TMP DP  RH  WIND    PRES   REMARKS
WALLA WALLA AP  PTCLDY      49  27  42  E8      30.27S
#DAYTON SCHOOL  N/A         42  25  51  N2      30.29S
#DELANEY DOT    N/A         35  28  75  SE1     N/A
#LOWDEN 2SE     N/A         36  33  89  N1      30.24S
#PLEASANT VIEW 1N/A         45  27  49  CALM    30.31F
#PRESCOTT       N/A         39  32  76  CALM    30.28S
#SUDBURY        N/A         37  N/A N/A CALM    N/A
#WHITMAN COLLEGEN/A         45  34  65  CALM    30.32S
#WAITSBURG 5S   N/A         45  29  53  CALM    30.37F
#WALLA WALLA 5E N/A         43  27  53  NE5     N/A
#WALLA WALLA U  N/A         46  32  58  CALM    30.27S
#WHITMAN MISSIONN/A         38  34  85  CALM    30.30R
$$

WAZ030-271110-
BLUE MOUNTAINS...WASHINGTON

CITY            SKY/WX      TMP DP  RH  WIND    PRES   REMARKS
#DIXIE 5SE      N/A         48  12  23  CALM    30.20F
$$

ORZ009-041-WAZ024-271110-
COLUMBIA RIVER GORGE

CITY            SKY/WX      TMP DP  RH  WIND    PRES   REMARKS
HOOD RIVER AP   PTCLDY      50  45  83  CALM    30.27S
THE DALLES AP   CLOUDY      54  45  71  W3      30.27R
#ARLINGTON AIRPON/A         51  43  74  S2      29.98S
#ARLINGTON HS   N/A         51  42  71  S2      30.18R
#CELILO DOT     N/A         55  44  66  SE1     N/A
#MARYHILL       N/A         51  43  74  CALM    N/A
#MOSIER 1S      N/A         50  38  63  CALM    30.24S
#MURDOCK        N/A         56  49  77  W3      30.28S
#RUFUS DOT      N/A         55  43  64  NE3     N/A

$$

ORZ510-271110-
NORTH CENTRAL OREGON

CITY            SKY/WX      TMP DP  RH  WIND    PRES   REMARKS
#CHENOWITH 1W   N/A         48  44  86  NW8     N/A
#COW CYN RST AREN/A         47  45  93  S1      N/A
#DUFUR 9E       N/A         48  43  83  CALM    30.32S
#GRASS VALLEY 1SN/A         42  38  86  SW5     30.27S
#KENT DOT       N/A         43  35  73  S2      N/A
#MAUPIN SCHOOL  N/A         51  42  71  CALM    30.28S
#MORO SCHOOL    N/A         41  39  93  CALM    30.27S
#SHANIKO 5WSW   N/A         45  36  70  S7      N/A
#SHANIKO 4NW    N/A         45  39  79  SW2     30.27S
#TYGH VALLEY 2NEN/A         47  40  76  W2      30.26S
#WAPANITIA AIRPON/A         48  43  83  CALM    30.27F
#WASCO DOT      N/A         44  40  86  E2      N/A
#WASCO 5NE      N/A         44  39  82  CALM    30.26S
$$

ORZ511-271110-
CENTRAL OREGON

CITY            SKY/WX      TMP DP  RH  WIND    PRES   REMARKS
BEND AIRPORT    MOCLDY      41  37  86  SW7     30.28S
MADRAS AIRPORT  MOCLDY      45  39  79  CALM    30.29S
PRINEVILLE AP   MOCLDY      36  34  92  CALM    30.28S
REDMOND AIRPORT MOCLDY      40  36  85  S6      30.28S
#BEND 1SW       N/A         41  38  89  SW1     N/A
#BEND-AWBREY    N/A         44  39  82  S6      30.28F
#BEND-KIM LN    N/A         44  39  82  S1      30.25S
#CROOKED RVR RANN/A         45  40  82  CALM    30.28S
#CULVER         N/A         45  40  82  CALM    30.24S
#LAKE BILLY CHINN/A         48  34  58  CALM    30.32R
#POWELL BUTTE 3EN/A         40  36  85  S1      N/A
#POWELL BUTTE   N/A         41  34  76  SW2     29.88S
#PRINEVILLE 3N  N/A         39  36  89  NE3     30.27S
#WARM SPRINGS   N/A         48  41  77  CALM    30.24R

$$


ORZ509-271110-
EAST SLOPES OF OREGON CASCADES

CITY            SKY/WX      TMP DP  RH  WIND    PRES   REMARKS
#BLUE BOX PASS  N/A         41  -10 11  S1      N/A
#CAMP SHERMAN   N/A         36  33  89  CALM    30.31R
#LA PINE 4NW    N/A         29  25  85  CALM    30.36S
#SISTERS AIRPOR N/A         39  39  100 CALM    30.17S
#SISTERS ODOT   N/A         39  N/A N/A CALM    N/A
#SISTERS 3N     N/A         39  32  76  CALM    30.28S
#SUNRIVER       N/A         36  33  89  CALM    30.19F
#TUMALO 3W      N/A         43  36  76  CALM    30.16F
#WANOGA BUTTE D N/A         40  34  79  W3      N/A

$$

ORZ044-271110-
LOWER COLUMBIA BASIN...OREGON

CITY            SKY/WX      TMP DP  RH  WIND    PRES   REMARKS
HERMISTON       MOCLDY      42  33  70  SE3     30.27R
#BOARDMAN 8SW   N/A         52  43  71  S6      30.26R
#IONE SCHOOL    N/A         46  32  58  CALM    30.24R
#IRRIGON 4NW    N/A         49  36  61  NE6     N/A
#UMATILLA SCHOOLN/A         44  38  79  E2      30.29S
#UMATILLA       N/A         48  33  56  E3      30.19R
$$

ORZ507-271110-
NORTHERN FOOTHILLS OF THE BLUES

CITY            SKY/WX      TMP DP  RH  WIND    PRES   REMARKS
PENDLETON AIRPT PTCLDY      40  29  64  SE3     30.27S
#ADAMS 3WNW     N/A         34  27  75  CALM    30.31R
#CAYUSE         N/A         46  28  49  E10     30.28R
#HELIX SCHOOL   N/A         35  27  72  CALM    30.30R
#HELIX 3N       N/A         41  26  55  N3      30.23R
#HOLDMAN 6E     N/A         41  27  57  CALM    30.10R
#M-F FERNDALE   N/A         43  30  60  CALM    30.24S
#M-F GROVE ELEM N/A         50  27  41  CALM    30.24S
#M-FREEWATER 5SEN/A         47  29  49  E6      30.25F
#PENDLETON DNTN N/A         39  23  52  E1      30.28S
#PDT AQUATIC CTRN/A         40  22  48  CALM    30.27S
#PENDLETON 5NE  N/A         36  29  75  CALM    30.24R
#PDT SUNRIDGE   N/A         35  29  78  CALM    30.30R
#PENDLETON 7NW  N/A         41  29  62  CALM    30.27R
#PILOT ROCK     N/A         40  26  57  CALM    30.29R
#TUTUILLA       N/A         34  28  78  CALM    30.29S
#UMAPINE 2E     N/A         46  32  58  SW2     30.24S
#WESTON SCHOOL  N/A         47  18  31  CALM    30.24F

$$

ORZ508-271110-
SOUTHERN FOOTHILLS OF THE BLUES

CITY            SKY/WX      TMP DP  RH  WIND    PRES   REMARKS
LEXINGTON       MOCLDY      46  32  58  SE12    30.29R WCI 40
#AJAX           N/A         49  37  63  S6      30.18R
#CONDON SCHOOL  N/A         44  34  68  CALM    30.21S
#CONDON 5W      N/A         46  38  73  SW6     30.23S
#FOSSIL SCHOOL  N/A         39  32  76  CALM    30.23S
#HEPPNER EOC    N/A         43  31  62  E8      30.22S
#HEPPNER 4NE    N/A         44  32  62  SE6     30.29S
#LEXINGTON 2SE  N/A         47  31  53  SE8     30.24S
#MIKKALO        N/A         43  34  70  SW2     30.26R
#RUGGS 5NE      N/A         39  27  62  CALM    30.43S
#RUGGS 2SW      N/A         43  32  65  SW9     30.30R

$$

ORZ502-503-271110-
BLUE MOUNTAINS

CITY            SKY/WX      TMP DP  RH  WIND    PRES   REMARKS
MEACHAM         CLEAR       27  23  85  CALM    30.29S
#BATTLE MTN DOT N/A         35  29  78  S2      N/A
#HEPPNER 15SE   N/A         34  29  82  CALM    30.20R
#LADD CYN SMT   N/A         29  21  72  S2      N/A
#LADD CREEK ODOTN/A         N/A N/A N/A S3      N/A
#LONG CREEK HS  N/A         36  31  82  CALM    30.25S
#N POWDER DOT   N/A         29  27  92  N3      N/A
#PIKES PEAK     N/A         49  14  24  S7      27.99S
#TOLLGATE       N/A         33  22  63  CALM    30.17S
#TROY SCHOOL    N/A         36  31  82  CALM    30.22R
#UKIAH          N/A         29  27  92  CALM    30.40S
#WESTON 4E      N/A         42  25  51  E6      30.25S
$$

ORZ505-271110-
JOHN DAY BASIN

CITY            SKY/WX      TMP DP  RH  WIND    PRES   REMARKS
JOHN DAY        PTCLDY      37  27  67  SE12    30.30R WCI 29
#JOHN DAY KJDY  N/A         37  32  82  CALM    30.33R
#DAYVILLE SCHOOLN/A         42  30  62  SE2     30.24S
#MITCHELL       N/A         40  36  85  E5      30.39S
#MONUMENT HS    N/A         38  29  70  CALM    30.28S
#MT. VERNON 5SE N/A         37  25  61  CALM    30.25R
#WINLOCK        N/A         40  29  64  CALM    30.34R
$$

ORZ506-271110-
OCHOCO AND JOHN DAY HIGHLANDS

CITY            SKY/WX      TMP DP  RH  WIND    PRES   REMARKS
#BUCK CREEK DOT N/A         44  44  100 E2      N/A
#HORSE RIDGE DO N/A         37  32  82  CALM    N/A
#KEYES SMT DOT  N/A         38  32  79  NW3     N/A
#PAULINA SCHOOL N/A         39  33  79  CALM    30.21F
#PINE MTN OBS   N/A         39  36  89  CALM    N/A
#PRAIRIE CITY   N/A         28  24  85  CALM    30.50R
#SENECA         N/A         29  N/A N/A CALM    N/A
#SENECA 9NW     N/A         26  21  81  CALM    30.35S
$$

ORZ049-271110-
GRANDE RONDE VALLEY

CITY            SKY/WX      TMP DP  RH  WIND    PRES   REMARKS
LA GRANDE       CLEAR       34  19  54  CALM    30.30R
#COVE SCHOOL    N/A         33  25  72  CALM    30.26R
#ELGIN 3N       N/A         28  20  71  CALM    30.27S
#ELGIN 1E       N/A         31  24  75  CALM    N/A
#IMBLER SCHOOL  N/A         41  27  57  CALM    30.25R
#ISLAND CITY 4N N/A         53  52  96  CALM    30.27F
#LADD CYN DOT   N/A         37  24  59  SE8     N/A
#LA GRANDE ELEM N/A         36  26  67  CALM    30.30R
#UNION 1S       N/A         37  26  64  CALM    30.26R
$$

ORZ050-271110-
WALLOWA COUNTY

CITY            SKY/WX      TMP DP  RH  WIND    PRES   REMARKS
#ENTERPRISE HS  N/A         28  23  81  CALM    30.30R
#IMNAHA SCHOOL  N/A         37  32  82  S1      30.32R
#JOSEPH 3N      N/A         25  17  71  CALM    30.29R
#JOSEPH 3W      N/A         33  17  51  SW2     30.09S
#LOSTINE        N/A         27  23  85  CALM    30.17R
#MT HOWARD 8000 N/A         28  -2  26  W5      30.24S
#PROMISE 1S     N/A         31  26  81  CALM    30.44R
#SHEEP RDG 7000 N/A         33  14  45  CALM    30.41S
#WALLOWA SCHOOL N/A         28  24  85  CALM    31.33R



$$



USA.gov is the U.S. government's official web portal to all federal, state and local government web resources and services.